TimeMST,TemperatureF,Dew PointF,Humidity,Sea Level PressureIn,VisibilityMPH,Wind Direction,Wind SpeedMPH,Gust SpeedMPH,PrecipitationIn,Events,Conditions,WindDirDegrees,DateUTC
12:53 AM,35.1,35.1,100,29.48,0.5,SSW,15.0,-,N/A,Fog,Fog,200,2013-01-11 07:53:00
1:53 AM,35.1,34.0,96,29.49,0.5,South,12.7,-,N/A,Fog,Fog,190,2013-01-11 08:53:00
2:19 AM,33.8,33.8,100,29.46,1.5,South,11.5,-,N/A,,Overcast,190,2013-01-11 09:19:00
2:25 AM,33.8,33.8,100,29.45,3.0,SSW,10.4,-,N/A,,Mostly Cloudy,200,2013-01-11 09:25:00
2:42 AM,33.8,32.0,93,29.45,1.8,SSW,9.2,-,N/A,,Mostly Cloudy,200,2013-01-11 09:42:00
2:48 AM,33.8,32.0,93,29.45,2.5,SSW,8.1,-,N/A,,Scattered Clouds,210,2013-01-11 09:48:00
2:53 AM,33.1,32.0,96,29.46,8.0,SSW,9.2,-,N/A,,Partly Cloudy,200,2013-01-11 09:53:00
3:53 AM,28.9,28.0,96,29.45,10.0,Variable,6.9,-,N/A,,Clear,0,2013-01-11 10:53:00
4:53 AM,32.0,26.1,79,29.41,10.0,SSW,9.2,-,N/A,,Clear,200,2013-01-11 11:53:00
5:53 AM,37.9,25.0,60,29.40,10.0,SW,19.6,25.3,N/A,,Clear,230,2013-01-11 12:53:00
6:53 AM,39.0,23.0,53,29.40,10.0,SW,16.1,-,N/A,,Clear,220,2013-01-11 13:53:00
7:53 AM,41.0,21.0,45,29.38,10.0,SW,17.3,-,N/A,,Clear,220,2013-01-11 14:53:00
8:53 AM,41.0,21.0,45,29.37,10.0,SW,23.0,32.2,N/A,,Clear,220,2013-01-11 15:53:00
9:53 AM,46.0,26.1,46,29.34,10.0,SSW,25.3,35.7,N/A,,Clear,210,2013-01-11 16:53:00
10:53 AM,53.1,26.1,35,29.30,10.0,SW,32.2,44.9,N/A,,Clear,220,2013-01-11 17:53:00
11:53 AM,55.9,21.9,27,29.26,10.0,SW,29.9,38.0,N/A,,Clear,220,2013-01-11 18:53:00
12:24 PM,53.6,10.4,18,29.29,1.8,WSW,35.7,49.5,N/A,,Haze,240,2013-01-11 19:24:00
12:53 PM,53.6,6.8,15,29.29,1.8,WSW,31.1,49.5,N/A,,Haze,240,2013-01-11 19:53:00
1:40 PM,51.8,5.0,15,29.31,3.0,WSW,28.8,47.2,N/A,,Haze,240,2013-01-11 20:40:00
1:53 PM,50.0,1.0,13,29.30,2.5,WSW,28.8,43.7,N/A,,Haze,240,2013-01-11 20:53:00
2:02 PM,50.0,1.4,14,29.31,3.0,WSW,35.7,47.2,N/A,,Haze,240,2013-01-11 21:02:00
2:11 PM,48.2,1.4,15,29.32,4.0,WSW,29.9,44.9,N/A,,Haze,250,2013-01-11 21:11:00
2:53 PM,48.0,3.0,16,29.33,6.0,WSW,31.1,39.1,N/A,,Haze,240,2013-01-11 21:53:00
3:14 PM,37.4,28.4,70,29.39,10.0,NNW,31.1,46.0,N/A,,Overcast,340,2013-01-11 22:14:00
3:24 PM,33.8,28.4,81,29.43,7.0,NNW,34.5,43.7,N/A,,Overcast,340,2013-01-11 22:24:00
3:30 PM,32.0,28.4,87,29.45,6.0,NNW,35.7,43.7,N/A,,Overcast,340,2013-01-11 22:30:00
3:45 PM,30.2,26.6,86,29.50,7.0,NNW,31.1,43.7,N/A,,Overcast,330,2013-01-11 22:45:00
3:53 PM,28.9,26.1,89,29.57,4.0,NNW,35.7,42.6,N/A,,Overcast,330,2013-01-11 22:53:00
4:00 PM,28.4,24.8,86,29.52,4.0,NNW,32.2,46.0,N/A,,Overcast,330,2013-01-11 23:00:00
4:10 PM,28.4,24.8,86,29.54,8.0,NNW,29.9,44.9,N/A,,Overcast,340,2013-01-11 23:10:00
4:18 PM,28.4,24.8,86,29.56,2.5,NNW,32.2,46.0,0.00,Snow,Light Snow,340,2013-01-11 23:18:00
4:28 PM,28.4,23.0,80,29.58,4.0,NNW,28.8,42.6,0.00,Snow,Light Snow,330,2013-01-11 23:28:00
4:35 PM,26.6,21.2,80,29.59,3.0,NNW,35.7,42.6,0.00,Snow,Light Snow,340,2013-01-11 23:35:00
4:48 PM,26.6,21.2,80,29.61,1.8,NNW,25.3,38.0,0.00,Snow,Light Snow,340,2013-01-11 23:48:00
4:53 PM,26.1,21.0,81,29.67,1.5,North,21.9,32.2,0.00,Snow,Light Snow,350,2013-01-11 23:53:00
5:05 PM,24.8,21.2,86,29.62,2.0,NNW,17.3,29.9,0.00,Snow,Light Snow,340,2013-01-12 00:05:00
5:31 PM,24.8,21.2,86,29.64,6.0,NNW,10.4,20.7,0.00,Snow,Light Snow,340,2013-01-12 00:31:00
5:42 PM,23.0,21.2,93,29.64,10.0,NNW,11.5,-,0.00,,Scattered Clouds,330,2013-01-12 00:42:00
5:53 PM,23.0,19.9,88,29.71,10.0,NNW,13.8,-,0.00,,Scattered Clouds,330,2013-01-12 00:53:00
6:01 PM,24.8,19.4,80,29.68,10.0,NNW,13.8,-,N/A,,Mostly Cloudy,330,2013-01-12 01:01:00
6:10 PM,24.8,21.2,86,29.69,10.0,NW,12.7,19.6,N/A,,Mostly Cloudy,310,2013-01-12 01:10:00
6:17 PM,24.8,21.2,86,29.70,10.0,NW,19.6,26.5,N/A,,Overcast,320,2013-01-12 01:17:00
6:53 PM,23.0,19.0,85,29.79,10.0,NNW,18.4,21.9,N/A,,Overcast,330,2013-01-12 01:53:00
7:04 PM,23.0,17.6,80,29.75,10.0,NW,15.0,24.2,N/A,,Overcast,320,2013-01-12 02:04:00
7:53 PM,19.9,14.0,78,29.83,10.0,NW,18.4,-,N/A,,Mostly Cloudy,320,2013-01-12 02:53:00
8:02 PM,19.4,12.2,74,29.79,10.0,NNW,17.3,-,N/A,,Mostly Cloudy,330,2013-01-12 03:02:00
8:53 PM,17.1,12.0,81,29.87,10.0,NNW,8.1,-,N/A,,Overcast,340,2013-01-12 03:53:00
9:53 PM,14.0,10.0,84,29.91,10.0,NNW,4.6,-,N/A,,Mostly Cloudy,330,2013-01-12 04:53:00
10:53 PM,15.1,10.9,84,29.92,10.0,NNW,9.2,-,0.00,,Mostly Cloudy,330,2013-01-12 05:53:00
11:53 PM,15.1,5.0,64,29.91,10.0,NNW,16.1,-,N/A,,Clear,340,2013-01-12 06:53:00